La Grange, GA

5:17 AM EDT on April 27, 2018 (GMT -0400)
Lagrange-Callaway

Weather History for KLGC - September, 2013

Change the Weather History Date:

Thursday, September 12, 2013

  Actual Average Record
Temperature  
Mean Temperature 76 °F -  
Max Temperature 90 °F 85 °F 96 °F (1962)
Min Temperature 61 °F 62 °F 47 °F (1976)
Cooling Degree Days 10    
Growing Degree Days 26 (Base 50)    
Moisture  
Dew Point 66 °F    
Average Humidity 78    
Maximum Humidity 100    
Minimum Humidity 46    
Precipitation  
Precipitation 0.00 in - - ()
Sea Level Pressure  
Sea Level Pressure 30.05 in    
Wind  
Wind Speed 1 mph (NW)    
Max Wind Speed 7 mph    
Max Gust Speed -    
Visibility 8 miles    
Events Fog    
Averages and records for this station are not official NWS values.
T = Trace of Precipitation, MM = Missing Value Source: NWS Daily Summary

Daily Weather History Graph

Daily Weather History Graph

Search for Another Location

Airport or City:

Astronomy

Sep. 12, 2013 Rise Set
Actual Time 7:22 AM EDT 7:50 PM EDT
Civil Twilight 6:57 AM EDT 8:15 PM EDT
Nautical Twilight 6:28 AM EDT 8:44 PM EDT
Astronomical Twilight 5:58 AM EDT 9:13 PM EDT
Moon 2:28 PM EDT (9/12) 12:07 AM EDT (9/12)
Length of Visible Light 13h 17m
Length of Day
12h 28m
Waxing Crescent, 50% of the Moon is Illuminated
Sep 12
Waxing Crescent
Sep 12
First Quarter
Sep 19
Full
Sep 26
Last Quarter
Oct 4
New

Hourly Weather History & Observations

Time (EDT) Temp. Heat Index Dew Point Humidity Pressure Visibility Wind Dir Wind Speed Gust Speed Precip Events Conditions
12:15 AM 65.7 °F - 64.6 °F 96% 30.12 in 10.0 mi Calm Calm - N/A   Clear
12:35 AM 65.3 °F - 64.4 °F 97% 30.12 in 7.0 mi Calm Calm - N/A   Clear
12:55 AM 66.2 °F - 64.9 °F 96% 30.12 in 10.0 mi Calm Calm - N/A   Clear
1:15 AM 65.8 °F - 64.6 °F 96% 30.11 in 10.0 mi Calm Calm - N/A   Clear
1:35 AM 65.1 °F - 63.7 °F 95% 30.11 in 10.0 mi Calm Calm - N/A   Clear
1:55 AM 64.0 °F - 63.3 °F 97% 30.10 in 5.0 mi Calm Calm - N/A   Clear
2:15 AM 63.9 °F - 63.0 °F 97% 30.10 in 10.0 mi Calm Calm - N/A   Clear
2:35 AM 63.5 °F - 62.4 °F 96% 30.10 in 7.0 mi Calm Calm - N/A   Clear
2:55 AM 63.5 °F - 62.6 °F 97% 30.10 in 7.0 mi Calm Calm - N/A   Clear
3:15 AM 63.7 °F - 62.8 °F 97% 30.11 in 10.0 mi Calm Calm - N/A   Clear
3:35 AM 63.5 °F - 62.8 °F 97% 30.11 in 3.0 mi Calm Calm - N/A   Clear
3:55 AM 62.2 °F - 61.9 °F 99% 30.11 in 1.5 mi Calm Calm - N/A   Mist
4:15 AM 63.3 °F - 62.4 °F 97% 30.10 in 10.0 mi Calm Calm - N/A   Clear
4:35 AM 63.5 °F - 62.6 °F 97% 30.11 in 10.0 mi Calm Calm - N/A   Clear
4:55 AM 62.2 °F - 61.2 °F 96% 30.11 in 7.0 mi Calm Calm - N/A   Clear
5:15 AM 61.9 °F - 61.5 °F 99% 30.11 in 1.5 mi Calm Calm - N/A   Mist
5:35 AM 62.4 °F - 61.7 °F 97% 30.11 in 7.0 mi Calm Calm - N/A   Clear
5:55 AM 61.7 °F - 61.3 °F 99% 30.11 in 1.5 mi Calm Calm - N/A   Mist
6:15 AM 62.1 °F - 61.9 °F 99% 30.11 in 0.5 mi Calm Calm - N/A Fog Fog
6:35 AM 62.2 °F - 62.1 °F 99% 30.10 in 0.8 mi Calm Calm - N/A   Mist
6:55 AM 61.7 °F - 61.2 °F 98% 30.10 in 5.0 mi Calm Calm - N/A   Clear
7:15 AM 61.2 °F - 61.0 °F 99% 30.11 in 1.5 mi Calm Calm - N/A   Mist
7:35 AM 61.5 °F - 61.5 °F 100% 30.11 in 0.5 mi Calm Calm - N/A Fog Fog
7:55 AM 61.7 °F - 61.2 °F 98% 30.11 in 5.0 mi Calm Calm - N/A   Clear
8:15 AM 64.2 °F - 62.6 °F 94% 30.11 in 10.0 mi Calm Calm - N/A   Clear
8:35 AM 66.4 °F - 63.9 °F 92% 30.11 in 10.0 mi Calm Calm - N/A   Clear
8:55 AM 68.9 °F - 65.5 °F 89% 30.11 in 10.0 mi Calm Calm - N/A   Clear
9:15 AM 72.7 °F - 67.5 °F 84% 30.11 in 10.0 mi Calm Calm - N/A   Clear
9:35 AM 74.1 °F - 70.0 °F 87% 30.10 in 10.0 mi Calm Calm - N/A   Clear
9:55 AM 76.3 °F - 70.7 °F 83% 30.11 in 10.0 mi Calm Calm - N/A   Clear
10:15 AM 78.8 °F - 71.4 °F 78% 30.10 in 10.0 mi Calm Calm - N/A   Clear
10:35 AM 80.4 °F 84.1 °F 70.9 °F 73% 30.10 in 10.0 mi Calm Calm - N/A   Clear
10:55 AM 82.4 °F 87.0 °F 71.4 °F 69% 30.10 in 10.0 mi NW 3.5 mph - N/A   Clear
11:15 AM 82.9 °F 86.7 °F 69.8 °F 64% 30.10 in 10.0 mi NNW 5.8 mph - N/A   Clear
11:35 AM 84.2 °F 86.8 °F 66.9 °F 56% 30.09 in 10.0 mi WNW 4.6 mph - N/A   Clear
11:55 AM 84.9 °F 87.9 °F 67.8 °F 56% 30.09 in 10.0 mi NW 6.9 mph - N/A   Clear
12:15 PM 86.0 °F 88.2 °F 66.0 °F 51% 30.09 in 10.0 mi West 4.6 mph - N/A   Clear
12:35 PM 86.0 °F 87.9 °F 65.3 °F 50% 30.08 in 10.0 mi Calm Calm - N/A   Clear
12:55 PM 87.3 °F 89.5 °F 66.0 °F 49% 30.08 in 10.0 mi NNE 4.6 mph - N/A   Clear
1:15 PM 87.4 °F 90.5 °F 67.3 °F 51% 30.07 in 10.0 mi North 4.6 mph - N/A   Clear
1:35 PM 86.0 °F 88.5 °F 66.7 °F 52% 30.06 in 10.0 mi NNW 5.8 mph - N/A   Scattered Clouds
1:55 PM 88.0 °F 90.7 °F 66.6 °F 49% 30.05 in 10.0 mi NNE 3.5 mph - N/A   Scattered Clouds
2:15 PM 86.4 °F 88.7 °F 66.4 °F 51% 30.04 in 10.0 mi Calm Calm - N/A   Mostly Cloudy
2:35 PM 89.4 °F 91.9 °F 66.2 °F 46% 30.03 in 10.0 mi Calm Calm - N/A   Scattered Clouds
2:55 PM 88.9 °F 91.8 °F 66.7 °F 48% 30.02 in - NW 5.8 mph - N/A   Scattered Clouds
3:15 PM 88.0 °F 90.7 °F 66.7 °F 49% 30.01 in - WNW 3.5 mph - N/A   Overcast
3:35 PM 88.3 °F 91.2 °F 66.9 °F 49% 29.99 in - WNW 5.8 mph - N/A   Scattered Clouds
3:55 PM 89.8 °F 92.9 °F 67.1 °F 47% 29.99 in - WSW 5.8 mph - N/A   Mostly Cloudy
4:15 PM 87.6 °F 90.1 °F 66.6 °F 49% 29.98 in - NNW 4.6 mph - N/A   Overcast
4:35 PM 90.0 °F 93.2 °F 67.1 °F 47% 29.97 in - West 3.5 mph - N/A   Scattered Clouds
4:55 PM 89.8 °F 92.5 °F 66.7 °F 46% 29.97 in 10.0 mi WNW 6.9 mph - N/A   Scattered Clouds
5:15 PM 89.2 °F 92.0 °F 66.6 °F 47% 29.96 in 10.0 mi Calm Calm - N/A   Scattered Clouds
5:35 PM 89.4 °F 92.7 °F 67.1 °F 48% 29.96 in 10.0 mi Calm Calm - N/A   Clear
5:55 PM 88.7 °F 91.9 °F 67.1 °F 49% 29.95 in - WNW 6.9 mph - N/A   Clear
6:15 PM 88.0 °F 91.0 °F 67.3 °F 50% 29.94 in - West 4.6 mph - N/A   Clear
6:35 PM 87.6 °F 90.8 °F 67.6 °F 51% 29.94 in - WNW 5.8 mph - N/A   Clear
6:55 PM 86.2 °F 90.0 °F 68.7 °F 56% 29.94 in - WNW 4.6 mph - N/A   Clear
7:15 PM 84.6 °F 88.5 °F 69.4 °F 60% 29.95 in - West 3.5 mph - N/A   Clear
7:35 PM 81.0 °F 84.7 °F 70.9 °F 71% 29.94 in - Calm Calm - N/A   Clear
7:55 PM 78.3 °F - 70.9 °F 78% 29.94 in - Calm Calm - N/A   Clear
8:15 PM 77.9 °F - 71.6 °F 81% 29.95 in - Calm Calm - N/A   Clear
8:35 PM 76.5 °F - 71.2 °F 84% 29.95 in 10.0 mi Calm Calm - N/A   Clear
8:55 PM 73.8 °F - 70.7 °F 90% 29.96 in 10.0 mi Calm Calm - N/A   Clear
9:15 PM 73.9 °F - 70.0 °F 87% 29.96 in 10.0 mi Calm Calm - N/A   Clear
9:35 PM 72.9 °F - 69.4 °F 89% 29.96 in 10.0 mi Calm Calm - N/A   Clear
9:55 PM 72.5 °F - 69.4 °F 90% 29.97 in 10.0 mi Calm Calm - N/A   Clear
10:15 PM 71.8 °F - 70.7 °F 96% 29.98 in 7.0 mi Calm Calm - N/A   Clear
10:35 PM 71.6 °F - 69.4 °F 93% 29.98 in 10.0 mi Calm Calm - N/A   Clear
10:55 PM 71.4 °F - 70.2 °F 96% 29.98 in 7.0 mi Calm Calm - N/A   Clear
11:15 PM 72.0 °F - 69.1 °F 91% 29.98 in - Calm Calm - N/A   Unknown
11:35 PM 71.4 °F - 69.6 °F 94% 29.98 in 10.0 mi Calm Calm - N/A   Clear
11:55 PM 70.7 °F - 68.7 °F 93% 29.97 in 10.0 mi Calm Calm - N/A   Clear